FW6870 Weather Reports


Display with metric or nautical units.
time (UTC)temp
F
wind
direction
speed
MPH
gust
MPH
rain 1hr
in
rain 24hr
in
rain mn
in
humidity
%
barometer
mb
20260904154536 87 211 1.0 4.0 0.00 0.00 0.00 70 1019.3
20260904153045 86 218 3.0 8.0 0.00 0.00 0.00 71 1019.2
20260904144538 83 177 2.0 8.0 0.00 0.00 0.00 78 1019.3
20260904134536 80 120 5.0 9.0 0.00 0.00 0.00 83 1019.2
20260904124546 77 360 3.0 8.0 0.00 0.00 0.00 90 1019.0
20260904114541 76 100 6.0 9.0 0.00 0.00 0.00 89 1019.0
20260904100034 77 360 4.0 7.0 0.00 0.00 0.00 83 1018.3
20260904094542 78 360 4.0 7.0 0.00 0.00 0.00 82 1018.3
20260904081534 80 360 3.0 5.0 0.00 0.00 0.00 77 1017.9
20260904071539 81 360 3.0 6.0 0.00 0.00 0.00 77 1018.0
20260904061533 82 107 2.0 3.0 0.00 0.00 0.00 74 1018.4
20260904060035 82 109 1.0 4.0 0.00 0.00 0.00 73 1018.4
20260904053038 82 98 5.0 7.0 0.00 0.00 0.00 73 1018.5
20260904051538 82 95 5.0 8.0 0.00 0.00 0.00 73 1018.5
20260904041536 83 80 2.0 4.0 0.00 0.00 0.00 71 1018.9
20260904040033 84 78 2.0 5.0 0.00 0.00 0.00 71 1018.8
20260904024534 86 82 3.0 8.0 0.00 0.00 0.00 65 1018.9
20260904020036 87 84 3.0 8.0 0.00 0.00 0.00 64 1018.7
20260904014544 87 78 3.0 5.0 0.00 0.00 0.00 63 1018.6
20260904010041 88 73 2.0 4.0 0.00 0.00 0.00 62 1018.1
20260904003036 89 71 3.0 5.0 0.00 0.00 0.00 63 1017.5
20260904001535 89 76 3.0 5.0 0.00 0.00 0.00 62 1017.3
20260904000116 90 69 3.0 6.0 0.00 0.00 0.00 60 1017.1
20260903231536 92 67 5.0 10.0 0.00 0.00 0.00 56 1016.8
20260903224544 93 75 3.0 10.0 0.00 0.00 0.00 53 1016.8
20260903223035 93 76 6.0 9.0 0.00 0.00 0.00 52 1016.9
20260903220036 94 73 4.0 9.0 0.00 0.00 0.00 50 1016.7
20260903214537 94 67 6.0 11.0 0.00 0.00 0.00 52 1016.7
20260903213038 94 63 7.0 12.0 0.00 0.00 0.00 49 1016.6
20260903210039 93 151 7.0 12.0 0.00 0.00 0.00 48 1016.9
20260903204536 93 113 6.0 9.0 0.00 0.00 0.00 52 1017.0
20260903203041 94 129 5.0 12.0 0.00 0.00 0.00 50 1017.2
20260903201534 94 157 4.0 12.0 0.00 0.00 0.00 50 1017.2
20260903200034 93 94 4.0 10.0 0.00 0.00 0.00 51 1017.5
20260903194545 93 124 6.0 14.0 0.00 0.00 0.00 51 1017.7
20260903193037 93 123 3.0 10.0 0.00 0.00 0.00 51 1017.9
20260903191542 94 142 6.0 12.0 0.00 0.00 0.00 50 1018.2
20260903190052 94 176 5.0 12.0 0.00 0.00 0.00 49 1018.2
20260903184536 93 118 5.0 11.0 0.00 0.00 0.00 53 1018.5
20260903183034 93 149 2.0 7.0 0.00 0.00 0.00 52 1018.5
20260903181543 92 118 7.0 11.0 0.00 0.00 0.00 53 1018.6
20260903180038 93 0 1.0 7.0 0.00 0.00 0.00 53 1018.6
20260903174536 92 150 1.0 8.0 0.00 0.00 0.00 53 1018.9
20260903171540 93 132 3.0 13.0 0.00 0.00 0.00 53 1019.1
20260903163037 92 195 4.0 9.0 0.00 0.00 0.00 55 1019.5